FENGYUN 1C DEB

Satellite information

Favourite Embed

Satellite Type and Status

DEBRISIN ORBIT

Key statistics

Satellite FENGYUN 1C DEB at a glance.

Uptime

9663

Days in orbit

Revolutions

≈ 13.9

Per day

Orbit

SSO

Sun Synchronous Orbit

Inclination

98.8

Latest

Satellite identification and parameters

Extended collection of information and parameters for FENGYUN 1C DEB.

Object identification

Identified? True

Debris? True

Object name: FENGYUN 1C DEB

International designator: 1999-025CLZ

Object number (NORAD): 31922

Object ID (CCSDS): 31922

Country: PEOPLES REPUBLIC OF CHINA (PRC)

Current information (Y/N): Y

RCS size: SMALL

Orbital parameters

Period: 103.867 minutes

Inclination: 98.8036 deg

SMA: 7319.473 km

Apoapsis: 1058.92 km

Periapsis: 823.756 km

RAAN: 289.9021 deg

Eccentricy: 0.01606422

Argument of periapsis: 165.714 deg

Mean anomaly: 347.2112 deg

Mean motion: 13.86382405 rev/day

Mean motion (dot): 0.00001781 rev/day2

B* drag term: 0.0014206425 1/REarth

Two-line elements (TLE)

Creation date: Oct. 23, 2025, 2:46 a.m.

Reference frame: TEME

Reference center: EARTH

Epoch: Oct. 22, 2025, 11:10 a.m. UTC

TLE line 0: 0 FENGYUN 1C DEB

TLE line 1: 1 31922U 99025CLZ 25295.46540723 .00001781 00000-0 14206-2 0 9998

TLE line 2: 2 31922 98.8036 289.9021 0160642 165.7140 347.2112 13.86382405923067

Live tracking on map

Real-time ground track for satellite FENGYUN 1C DEB.

In-orbit conjunctions

A list of the most updated potential collisions computed for object FENGYUN 1C DEB.

Target Orbit TCA Probability of collision Miss distance Type
FENGYUN 1C DEB SSO 2025-07-27 08:01:25 0.0001272986 656.0 (m) DEBRIS
FENGYUN 1C DEB SSO 2024-09-27 14:35:36 0.000122257 169.0 (m) DEBRIS
FENGYUN 1C DEB SSO 2024-09-26 11:16:30 0.0002435147 333.0 (m) DEBRIS

Associated space launch

Chinese polar orbiting meteorological satellite

FENGYUN 1C DEB was lifted into orbit during the mission ‘Long March 4B | Feng Yun 1C’, on board a Long March 4B space rocket.

The launch took place on May 10, 1999, 1:33 a.m. from Launch Complex 7.

For more information about the launch, click the button.

Launch to space Long March 4B | Feng Yun 1C
Long March 4B | Feng Yun 1C

Agency: N/A

Status: Launch Successful

Launch date: May 10, 1999, 1:33 a.m. UTC

Rocket: Long March 4B

Launch pad: Launch Complex 7

Location: Taiyuan Satellite Launch Center, People's Republic of China

...

Latest news about this satellite

There are no fresh news available about this satellite. Check back as we update our databases every day.


Newsletter sign-up

Weekly statistics, charts and insights to help you stay on top of the space industry.